Stations météo

réclame
Mon MeteoGroup
Spa/La Sauveniere, Belgique (6490): Température de l'air & dewpoint: 13.06.2019 12:00:00 - 19.06.2019 12:00:00 (CEST)Spa/La Sauveniere, Belgique (6490): Vitesse du vent & gusts: 13.06.2019 12:00:00 - 19.06.2019 12:00:00 (CEST)Spa/La Sauveniere, Belgique (6490): Direction du vent: 13.06.2019 12:00:00 - 19.06.2019 12:00:00 (CEST)Spa/La Sauveniere, Belgique (6490): reduced air pressure: 13.06.2019 12:00:00 - 19.06.2019 12:00:00 (CEST)Spa/La Sauveniere, Belgique (6490): visibility: 13.06.2019 12:00:00 - 19.06.2019 12:00:00 (CEST)
Date & Time tt [°C] td [°C] ff [km/h] ff [knt] fx [km/h] fx [knt] dd ppp [hPa] vv [km]
19.06.2019 12:00:00 - - - - - - - - -
19.06.2019 11:00:00 22,1 12,9 22 12 - - S 1008,4 30
19.06.2019 10:00:00 22,2 13,0 22 12 40 21 S 1007,6 40
19.06.2019 09:00:00 21,3 13,5 22 12 32 18 S 1007,6 35
19.06.2019 08:00:00 19,7 12,9 22 12 - - SSE 1007,5 30
19.06.2019 07:00:00 18,2 12,5 22 12 32 18 SE 1008,2 40
19.06.2019 06:00:00 17,9 11,8 22 12 29 16 SSE 1009,1 45
19.06.2019 05:00:00 18,3 11,6 18 10 - - SSE 1009,2 45
19.06.2019 04:00:00 17,8 11,1 18 10 22 12 SSE 1009,9 45
19.06.2019 03:00:00 17,6 10,6 14 8 18 10 SSE 1010,4 45
19.06.2019 02:00:00 17,6 10,1 14 8 - - SSE 1010,9 45
19.06.2019 01:00:00 17,1 9,4 14 8 18 10 SSE 1011,6 45
19.06.2019 00:00:00 17,2 9,8 11 6 14 8 S 1012,0 45
18.06.2019 23:00:00 17,2 9,8 7 4 - - S 1012,5 45
18.06.2019 22:00:00 19,6 11,5 11 6 14 8 S 1012,3 45
18.06.2019 21:00:00 21,8 13,1 7 4 11 6 ESE 1011,6 30
18.06.2019 20:00:00 23,2 13,4 4 2 - - NE 1011,4 30
18.06.2019 19:00:00 23,5 14,3 11 6 14 8 NE 1011,6 30
18.06.2019 18:00:00 23,2 13,1 7 4 14 8 N 1012,2 35
18.06.2019 17:00:00 23,7 13,2 11 6 - - N 1012,6 35
18.06.2019 16:00:00 23,3 12,9 7 4 18 10 NW 1013,0 40
18.06.2019 15:00:00 23,2 12,5 11 6 18 10 NNW 1013,1 35
18.06.2019 14:00:00 24,4 11,1 7 4 - - - 1013,0 35
18.06.2019 13:00:00 24,2 10,8 11 6 18 10 S 1013,5 40
18.06.2019 12:00:00 23,9 11,0 0 0 11 6 N 1013,8 30
18.06.2019 11:00:00 22,4 11,3 0 0 - - N 1014,4 17
18.06.2019 10:00:00 21,7 11,2 7 4 11 6 N 1015,0 29
18.06.2019 09:00:00 21,4 13,6 7 4 11 6 SSE 1015,1 35
18.06.2019 08:00:00 18,8 12,2 4 2 - - SE 1015,7 35
18.06.2019 07:00:00 15,0 9,6 4 2 14 8 - 1016,3 40
18.06.2019 06:00:00 14,1 8,6 14 8 18 10 SSE 1016,3 45
18.06.2019 05:00:00 14,5 8,5 14 8 - - SSE 1016,6 45
18.06.2019 04:00:00 14,5 8,0 11 6 14 8 SSE 1016,9 45
18.06.2019 03:00:00 15,1 8,4 14 8 14 8 SSE 1017,2 45
18.06.2019 02:00:00 15,2 8,1 14 8 - - SSE 1017,5 45
18.06.2019 01:00:00 16,2 8,3 14 8 14 8 SSE 1017,7 45
18.06.2019 00:00:00 15,8 7,8 11 6 14 8 SSE 1017,7 45
17.06.2019 23:00:00 16,3 7,1 7 4 - - SSE 1017,7 45
17.06.2019 22:00:00 17,7 7,5 7 4 11 6 S 1017,5 45
17.06.2019 21:00:00 20,3 8,2 7 4 11 6 S 1017,0 45
17.06.2019 20:00:00 22,0 7,4 7 4 - - SW 1016,9 45
17.06.2019 19:00:00 23,6 7,7 7 4 18 10 S 1016,8 45
17.06.2019 18:00:00 23,8 8,9 7 4 14 8 ESE 1016,9 35
17.06.2019 17:00:00 23,6 9,1 7 4 - - SSE 1017,3 35
17.06.2019 16:00:00 23,0 8,7 7 4 22 12 - 1017,8 40
17.06.2019 15:00:00 23,3 9,2 4 2 22 12 - 1018,2 35
17.06.2019 14:00:00 22,1 9,9 7 4 - - SE 1018,9 30
17.06.2019 13:00:00 20,9 9,8 0 0 22 12 N 1019,6 35
17.06.2019 12:00:00 20,2 8,8 11 6 22 12 SW 1020,0 40
17.06.2019 11:00:00 19,2 9,6 14 8 - - S 1020,3 30
17.06.2019 10:00:00 18,7 11,6 18 10 25 14 SSE 1020,7 35
17.06.2019 09:00:00 17,1 11,2 18 10 25 14 SSE 1021,2 30
17.06.2019 08:00:00 15,1 10,2 18 10 - - SSE 1021,3 35
17.06.2019 07:00:00 13,5 9,2 14 8 22 12 SE 1021,5 35
17.06.2019 06:00:00 12,6 8,7 11 6 18 10 SSE 1022,0 45
17.06.2019 05:00:00 12,7 8,6 14 8 - - SSE 1022,2 45
17.06.2019 04:00:00 12,2 8,4 14 8 14 8 SSE 1022,3 45
17.06.2019 03:00:00 11,6 7,6 11 6 14 8 SSE 1022,7 45
17.06.2019 02:00:00 11,4 7,5 11 6 - - SSE 1022,8 45
17.06.2019 01:00:00 11,7 7,3 11 6 14 8 SSE 1022,8 40
17.06.2019 00:00:00 12,0 7,1 11 6 14 8 SSE 1022,7 45
16.06.2019 23:00:00 12,2 6,8 7 4 - - S 1022,7 45
16.06.2019 22:00:00 13,9 8,1 4 2 7 4 SSE 1022,1 45
16.06.2019 21:00:00 17,1 8,8 4 2 11 6 WSW 1021,4 45
16.06.2019 20:00:00 17,6 8,6 7 4 - - W 1021,3 45
16.06.2019 19:00:00 18,1 9,1 11 6 22 12 W 1021,0 35
16.06.2019 18:00:00 18,0 8,9 7 4 22 12 W 1020,9 45
16.06.2019 17:00:00 17,6 9,8 11 6 - - W 1021,1 40
16.06.2019 16:00:00 17,1 10,0 11 6 25 14 W 1021,4 40
16.06.2019 15:00:00 16,8 8,7 11 6 29 16 W 1021,3 40
16.06.2019 14:00:00 16,4 9,1 11 6 - - SW 1021,3 40
16.06.2019 13:00:00 16,2 8,9 14 8 29 16 SW 1021,4 40
16.06.2019 12:00:00 15,8 8,8 14 8 29 16 W 1021,4 45
16.06.2019 11:00:00 15,2 8,8 18 10 - - WSW 1021,1 40
16.06.2019 10:00:00 14,4 8,8 14 8 25 14 SW 1020,9 40
16.06.2019 09:00:00 13,8 8,7 14 8 25 14 WSW 1020,8 35
16.06.2019 08:00:00 13,3 8,6 7 4 - - SW 1020,2 40
16.06.2019 07:00:00 12,1 7,3 11 6 18 10 SSW 1020,4 45
16.06.2019 06:00:00 11,9 6,7 11 6 14 8 SSW 1020,1 45
16.06.2019 05:00:00 12,6 7,1 11 6 - - SW 1019,6 45
16.06.2019 04:00:00 12,7 6,8 11 6 14 8 SW 1019,4 45
16.06.2019 03:00:00 13,2 7,2 11 6 14 8 SW 1019,3 50
16.06.2019 02:00:00 13,7 7,7 7 4 - - SW 1019,2 45
16.06.2019 01:00:00 15,0 8,5 11 6 14 8 SW 1018,9 50
16.06.2019 00:00:00 14,9 8,3 11 6 14 8 WSW 1018,0 45
15.06.2019 23:00:00 13,5 7,2 7 4 - - SSW 1017,5 45
15.06.2019 22:00:00 15,9 8,3 7 4 11 6 WSW 1016,6 45
15.06.2019 21:00:00 17,0 8,4 7 4 14 8 WSW 1016,2 40
15.06.2019 20:00:00 17,9 8,8 7 4 - - W 1015,8 45
15.06.2019 19:00:00 19,1 9,2 14 8 29 16 W 1015,3 40
15.06.2019 18:00:00 20,0 9,1 14 8 29 16 W 1015,2 30
15.06.2019 17:00:00 19,4 8,5 11 6 - - W 1015,4 40
15.06.2019 16:00:00 19,5 9,0 14 8 32 18 W 1015,4 35
15.06.2019 15:00:00 18,8 8,8 18 10 32 18 W 1015,3 40
15.06.2019 14:00:00 18,2 10,7 14 8 - - W 1015,2 30
15.06.2019 13:00:00 17,0 12,3 18 10 36 19 WSW 1014,9 35
15.06.2019 12:00:00 15,8 13,9 11 6 22 12 WSW 1014,4 40
15.06.2019 11:00:00 14,9 13,8 11 6 - - W 1014,0 30
15.06.2019 10:00:00 14,7 11,9 11 6 29 16 W 1013,4 35
15.06.2019 09:00:00 14,3 12,1 18 10 29 16 WSW 1012,7 28
15.06.2019 08:00:00 13,8 12,3 14 8 - - WSW 1011,9 5
15.06.2019 07:00:00 13,9 12,2 14 8 22 12 S 1011,2 17
15.06.2019 06:00:00 13,8 12,6 11 6 18 10 S 1011,3 7
15.06.2019 05:00:00 14,0 11,9 11 6 - - SSW 1011,4 4,4
15.06.2019 04:00:00 14,0 10,1 4 2 18 10 S 1010,7 9
15.06.2019 03:00:00 14,3 10,3 7 4 18 10 SW 1011,8 15
15.06.2019 02:00:00 14,6 9,8 4 2 - - E 1010,5 22
15.06.2019 01:00:00 14,4 8,8 0 0 11 6 N 1012,6 17
15.06.2019 00:00:00 14,9 8,5 7 4 14 8 SE 1013,5 9
14.06.2019 23:00:00 16,0 8,8 11 6 - - SSE 1012,8 35
14.06.2019 22:00:00 18,4 8,5 14 8 18 10 SSE 1012,3 45
14.06.2019 21:00:00 19,6 8,7 11 6 14 8 SSE 1012,1 45
14.06.2019 20:00:00 21,3 8,6 7 4 - - S 1011,8 40
14.06.2019 19:00:00 22,8 9,3 11 6 22 12 SSW 1011,8 40
14.06.2019 18:00:00 22,6 8,5 11 6 22 12 S 1012,1 35
14.06.2019 17:00:00 22,6 8,3 14 8 - - SW 1012,6 35
14.06.2019 16:00:00 22,6 8,9 14 8 29 16 SSW 1013,0 40
14.06.2019 15:00:00 22,0 9,3 14 8 25 14 SSW 1013,6 35
14.06.2019 14:00:00 21,6 10,3 14 8 - - S 1014,0 40
14.06.2019 13:00:00 19,4 9,6 11 6 25 14 SSW 1015,1 40
14.06.2019 12:00:00 18,5 9,3 7 4 25 14 S 1015,1 35
14.06.2019 11:00:00 16,6 9,3 7 4 - - SSE 1014,7 35
14.06.2019 10:00:00 15,8 8,5 7 4 22 12 W 1015,4 35
14.06.2019 09:00:00 15,1 9,3 11 6 25 14 SSW 1015,4 45
14.06.2019 08:00:00 14,7 9,4 14 8 - - S 1014,2 35
14.06.2019 07:00:00 13,2 8,5 11 6 22 12 SSE 1013,6 45
14.06.2019 06:00:00 12,2 7,8 18 10 22 12 SSE 1013,5 45
14.06.2019 05:00:00 11,4 7,2 18 10 - - SSE 1013,6 50
14.06.2019 04:00:00 11,0 7,1 11 6 22 12 SSE 1013,9 45
14.06.2019 03:00:00 11,1 7,0 18 10 22 12 SSE 1014,5 45
14.06.2019 02:00:00 11,2 7,2 18 10 - - SSE 1014,9 45
14.06.2019 01:00:00 11,8 7,2 18 10 22 12 SSE 1014,9 45
14.06.2019 00:00:00 12,0 7,3 14 8 22 12 S 1014,9 50
13.06.2019 23:00:00 11,8 7,1 14 8 - - S 1014,5 45
13.06.2019 22:00:00 13,2 7,6 14 8 25 14 S 1013,8 35
13.06.2019 21:00:00 13,6 8,1 18 10 32 18 S 1013,4 45
13.06.2019 20:00:00 14,1 8,6 22 12 - - SSE 1012,8 45
13.06.2019 19:00:00 12,6 7,0 18 10 50 27 S 1013,8 40
13.06.2019 18:00:00 17,0 5,9 25 14 47 25 SW 1012,4 35
13.06.2019 17:00:00 17,8 5,5 25 14 - - SSW 1012,1 30
13.06.2019 16:00:00 16,8 5,2 25 14 47 25 SSW 1012,3 35
13.06.2019 15:00:00 16,2 5,1 25 14 50 27 SSW 1012,4 35
13.06.2019 14:00:00 16,7 5,6 25 14 - - SSW 1012,5 35
13.06.2019 13:00:00 15,9 6,0 22 12 47 25 SSW 1012,6 30
13.06.2019 12:00:00 14,9 6,4 25 14 43 23 SSW 1012,6 30

tt = Température de l'air
td = dewpoint
ff = Vitesse du vent
fx = gusts
dd = Direction du vent
ppp = reduced air pressure
vv = visibility

stations d'obs. à proximité